| time (UTC) | temp F | wind direction | speed knots | gust knots | rain 1hr in | rain 24hr in | rain mn in | humidity % | barometer mb |
| 20260505004517 | 72 | 32 | 2.6 | 2.6 | 0.00 | 0.00 | 0.00 | 56 | 1011.1 |
| 20260505004014 | 71 | 111 | 5.2 | 5.2 | 0.00 | 0.00 | 0.00 | 55 | 1011.0 |
| 20260505003511 | 73 | 38 | 2.6 | 2.6 | 0.00 | 0.00 | 0.00 | 54 | 1011.0 |
| 20260505003009 | 73 | 30 | 0.9 | 1.7 | 0.00 | 0.00 | 0.00 | 54 | 1011.3 |
| 20260505002504 | 73 | 27 | 1.7 | 1.7 | 0.00 | 0.00 | 0.00 | 54 | 1011.1 |
| 20260505002003 | 73 | 45 | 2.6 | 4.3 | 0.00 | 0.00 | 0.00 | 53 | 1011.2 |
| 20260505001500 | 73 | 77 | 1.7 | 2.6 | 0.00 | 0.00 | 0.00 | 53 | 1011.1 |
| 20260505000956 | 72 | 40 | 1.7 | 3.5 | 0.00 | 0.00 | 0.00 | 54 | 1011.1 |
| 20260505000454 | 73 | 26 | 1.7 | 3.5 | 0.00 | 0.00 | 0.00 | 53 | 1011.3 |
| 20260504235951 | 73 | 79 | 2.6 | 2.6 | 0.00 | 0.00 | 0.00 | 52 | 1011.1 |
| 20260504235448 | 73 | 359 | 1.7 | 1.7 | 0.00 | 0.00 | 0.00 | 52 | 1011.4 |
| 20260504234945 | 74 | 271 | 1.7 | 2.6 | 0.00 | 0.00 | 0.00 | 55 | 1011.3 |
| 20260504234442 | 74 | 294 | 1.7 | 1.7 | 0.00 | 0.00 | 0.00 | 55 | 1011.4 |
| 20260504233938 | 74 | 331 | 0.9 | 1.7 | 0.00 | 0.00 | 0.00 | 55 | 1011.5 |
| 20260504233434 | 73 | 107 | 2.6 | 2.6 | 0.00 | 0.00 | 0.00 | 52 | 1011.4 |
| 20260504232931 | 73 | 49 | 3.5 | 4.3 | 0.00 | 0.00 | 0.00 | 51 | 1011.5 |
| 20260504232428 | 74 | 64 | 0.9 | 2.6 | 0.00 | 0.00 | 0.00 | 50 | 1011.3 |
| 20260504231925 | 75 | 340 | 1.7 | 3.5 | 0.00 | 0.00 | 0.00 | 49 | 1011.5 |
| 20260504231422 | 74 | 103 | 2.6 | 2.6 | 0.00 | 0.00 | 0.00 | 52 | 1011.3 |
| 20260504230918 | 75 | 245 | 5.2 | 5.2 | 0.00 | 0.00 | 0.00 | 48 | 1011.4 |
| 20260504230415 | 74 | 132 | 1.7 | 2.6 | 0.00 | 0.00 | 0.00 | 48 | 1011.6 |
| 20260504225914 | 74 | 142 | 0.0 | 1.7 | 0.00 | 0.00 | 0.00 | 49 | 1011.5 |
| 20260504225410 | 73 | 46 | 2.6 | 3.5 | 0.00 | 0.00 | 0.00 | 51 | 1011.6 |
| 20260504224908 | 73 | 22 | 1.7 | 3.5 | 0.00 | 0.00 | 0.00 | 51 | 1011.7 |
| 20260504224404 | 73 | 41 | 2.6 | 3.5 | 0.00 | 0.00 | 0.00 | 50 | 1011.7 |
| 20260504223902 | 73 | 231 | 4.3 | 6.1 | 0.00 | 0.00 | 0.00 | 53 | 1011.9 |
| 20260504223356 | 73 | 217 | 3.5 | 4.3 | 0.00 | 0.00 | 0.00 | 54 | 1011.6 |
| 20260504222853 | 73 | 346 | 1.7 | 6.1 | 0.00 | 0.00 | 0.00 | 53 | 1011.8 |
| 20260504222350 | 72 | 76 | 1.7 | 2.6 | 0.00 | 0.00 | 0.00 | 51 | 1011.8 |
| 20260504221849 | 73 | 343 | 2.6 | 5.2 | 0.00 | 0.00 | 0.00 | 51 | 1011.8 |
| 20260504221345 | 74 | 93 | 0.0 | 4.3 | 0.00 | 0.00 | 0.00 | 50 | 1011.8 |
| 20260504220842 | 73 | 293 | 3.5 | 5.2 | 0.00 | 0.00 | 0.00 | 53 | 1011.9 |
| 20260504220338 | 73 | 107 | 1.7 | 2.6 | 0.00 | 0.00 | 0.00 | 49 | 1011.8 |
| 20260504215836 | 74 | 329 | 1.7 | 1.7 | 0.00 | 0.00 | 0.00 | 50 | 1011.9 |
| 20260504215332 | 74 | 28 | 0.0 | 2.6 | 0.00 | 0.00 | 0.00 | 52 | 1012.0 |
| 20260504214828 | 75 | 200 | 3.5 | 4.3 | 0.00 | 0.00 | 0.00 | 50 | 1012.0 |
| 20260504214326 | 74 | 58 | 0.0 | 1.7 | 0.00 | 0.00 | 0.00 | 51 | 1012.1 |
| 20260504213822 | 73 | 30 | 3.5 | 5.2 | 0.00 | 0.00 | 0.00 | 50 | 1012.0 |
| 20260504213318 | 73 | 40 | 1.7 | 2.6 | 0.00 | 0.00 | 0.00 | 50 | 1012.1 |
| 20260504212815 | 75 | 74 | 2.6 | 3.5 | 0.00 | 0.00 | 0.00 | 48 | 1012.1 |
| 20260504212311 | 73 | 43 | 2.6 | 3.5 | 0.00 | 0.00 | 0.00 | 50 | 1012.2 |
| 20260504211809 | 72 | 54 | 1.7 | 2.6 | 0.00 | 0.00 | 0.00 | 50 | 1012.3 |
| 20260504211305 | 72 | 42 | 2.6 | 3.5 | 0.00 | 0.00 | 0.00 | 52 | 1012.4 |
| 20260504210803 | 74 | 111 | 0.9 | 2.6 | 0.00 | 0.00 | 0.00 | 50 | 1012.0 |
| 20260504210300 | 74 | 216 | 4.3 | 4.3 | 0.00 | 0.00 | 0.00 | 49 | 1012.1 |
| 20260504205757 | 72 | 92 | 2.6 | 5.2 | 0.00 | 0.00 | 0.00 | 52 | 1012.1 |
| 20260504205254 | 73 | 47 | 0.0 | 2.6 | 0.00 | 0.00 | 0.00 | 51 | 1012.1 |
| 20260504204752 | 71 | 57 | 2.6 | 3.5 | 0.00 | 0.00 | 0.00 | 50 | 1012.0 |
| 20260504204251 | 72 | 62 | 1.7 | 3.5 | 0.00 | 0.00 | 0.00 | 49 | 1012.1 |
| 20260504203750 | 73 | 47 | 2.6 | 2.6 | 0.00 | 0.00 | 0.00 | 49 | 1012.0 |
| 20260504203246 | 73 | 18 | 1.7 | 2.6 | 0.00 | 0.00 | 0.00 | 49 | 1012.1 |
| 20260504202741 | 73 | 25 | 0.0 | 1.7 | 0.00 | 0.00 | 0.00 | 50 | 1011.9 |
| 20260504202239 | 74 | 314 | 0.9 | 3.5 | 0.00 | 0.00 | 0.00 | 47 | 1012.0 |
| 20260504201736 | 75 | 355 | 0.9 | 1.7 | 0.00 | 0.00 | 0.00 | 47 | 1012.0 |
| 20260504201233 | 75 | 353 | 2.6 | 2.6 | 0.00 | 0.00 | 0.00 | 46 | 1012.1 |
| 20260504200731 | 74 | 14 | 0.0 | 2.6 | 0.00 | 0.00 | 0.00 | 45 | 1012.0 |
| 20260504200226 | 74 | 347 | 0.0 | 2.6 | 0.00 | 0.00 | 0.00 | 47 | 1012.1 |
| 20260504195723 | 74 | 352 | 1.7 | 3.5 | 0.00 | 0.00 | 0.00 | 45 | 1012.2 |
| 20260504195219 | 74 | 269 | 3.5 | 6.1 | 0.00 | 0.00 | 0.00 | 52 | 1012.3 |
| 20260504194716 | 73 | 231 | 7.0 | 7.8 | 0.00 | 0.00 | 0.00 | 48 | 1012.2 |
| 20260504194212 | 74 | 237 | 2.6 | 7.0 | 0.00 | 0.00 | 0.00 | 48 | 1012.0 |
| 20260504193709 | 75 | 48 | 2.6 | 2.6 | 0.00 | 0.00 | 0.00 | 45 | 1012.0 |
| 20260504193206 | 76 | 33 | 1.7 | 2.6 | 0.00 | 0.00 | 0.00 | 44 | 1012.0 |
| 20260504192704 | 75 | 72 | 1.7 | 3.5 | 0.00 | 0.00 | 0.00 | 43 | 1012.1 |
| 20260504192202 | 76 | 105 | 0.0 | 3.5 | 0.00 | 0.00 | 0.00 | 43 | 1012.0 |
| 20260504191701 | 76 | 252 | 3.5 | 3.5 | 0.00 | 0.00 | 0.00 | 47 | 1012.2 |
| 20260504191156 | 75 | 174 | 2.6 | 7.0 | 0.00 | 0.00 | 0.00 | 41 | 1011.9 |
| 20260504190652 | 75 | 252 | 7.8 | 10.4 | 0.00 | 0.00 | 0.00 | 41 | 1011.9 |
| 20260504190148 | 75 | 233 | 5.2 | 7.8 | 0.00 | 0.00 | 0.00 | 46 | 1012.1 |